Lapse_Rate
7.1 7.4 7.3 7.9 7.5 7.8 8.2 8.2 7.8 8.2 7.9 7.1 6.6 6.0 6.0 5.8 5.5 4.9 4.6 4.5 4.7 5.4 6.1 5.6 5.7 5.7 5.8 5.9 5.9 5.8 5.6 5.4 5.3 5.3 5.4 5.2 6.1 5.9 5.8 5.3 5.1 5.3 5.7 5.7
6.6 7.1 7.2 7.2 7.4 7.7 7.9 7.9 7.8 7.3 6.8 6.5 5.9 5.7 5.6 5.4 5.1 4.8 4.4 4.2 4.1 4.4 5.5 5.3 5.1 5.0 5.2 5.3 5.5 5.5 5.5 5.4 5.3 5.2 5.3 5.5 5.7 5.3 5.7 5.3 5.7 5.2 5.8 5.9
6.4 6.8 6.4 6.8 7.2 7.3 7.8 7.9 7.3 6.8 6.9 6.7 6.1 5.7 5.4 5.3 5.1 4.6 4.4 4.3 4.1 4.2 5.0 5.3 5.1 5.1 5.1 5.1 5.1 5.3 5.4 5.4 5.4 5.4 5.3 5.3 5.4 5.6 5.7 5.6 5.3 5.5 5.3 5.3
6.2 6.3 6.9 7.2 7.7 8.2 7.9 8.0 7.7 7.3 7.0 6.1 7.1 5.8 5.5 5.2 5.0 4.6 4.3 4.1 3.9 4.0 4.4 4.7 5.0 5.1 5.3 5.4 5.3 5.3 5.4 5.5 5.5 5.5 5.6 5.7 5.7 5.6 5.7 5.9 5.7 5.6 5.6 5.2
5.9 6.6 7.1 7.5 7.7 7.9 7.1 7.5 7.4 7.5 7.0 6.9 6.8 6.0 5.6 5.2 4.9 4.7 4.6 4.3 4.3 4.1 4.3 4.6 4.8 5.0 5.0 5.2 5.3 5.5 5.4 5.3 5.4 5.4 5.5 5.6 5.7 5.7 5.7 5.5 5.6 5.8 5.9 6.3
6.7 6.9 7.1 6.7 7.2 7.5 7.2 7.1 7.6 7.8 7.6 6.8 7.7 7.0 5.5 5.4 5.0 4.7 4.7 4.5 4.5 4.5 4.5 4.7 5.1 5.2 5.1 5.0 5.1 5.2 5.3 5.3 5.3 5.3 5.3 5.4 5.5 5.6 5.7 5.7 5.6 5.6 5.6 5.8
6.4 6.6 6.5 6.6 6.8 7.2 7.5 7.5 7.2 7.3 6.8 6.3 7.9 7.9 6.7 6.0 5.2 5.5 5.2 4.9 4.8 4.7 4.6 4.9 5.0 5.3 5.5 5.4 5.3 5.2 5.2 5.2 5.3 5.3 5.3 5.3 5.2 5.4 5.6 5.8 5.9 6.0 6.0 6.0
6.5 5.9 6.1 6.8 6.9 7.0 7.1 7.7 7.3 6.5 6.1 7.2 8.7 7.1 6.0 6.4 5.8 5.7 5.5 5.1 5.0 4.9 4.7 4.6 5.2 5.4 5.5 5.6 5.6 5.6 5.5 5.4 5.3 5.2 5.3 5.3 5.3 5.2 5.4 5.6 5.8 5.8 6.0 6.2
6.5 6.5 6.6 6.7 6.6 6.8 7.1 6.9 7.6 7.5 8.1 7.8 6.9 6.2 6.5 6.0 5.7 5.9 5.5 5.1 4.8 4.6 4.4 4.4 4.8 5.7 5.5 5.6 5.7 5.7 5.8 5.7 5.6 5.6 5.6 5.6 5.6 5.6 5.5 5.5 5.5 5.6 5.8 6.0
7.1 6.0 6.5 6.5 6.7 6.6 6.8 7.2 7.1 7.5 6.9 6.9 6.8 6.5 5.8 6.1 6.5 6.0 5.7 5.2 4.9 4.5 4.2 4.3 4.7 5.3 5.8 5.7 5.6 5.6 5.7 5.8 5.8 5.9 5.9 5.9 5.7 5.7 5.6 5.5 5.5 5.5 5.6 5.8
7.1 6.6 6.2 6.4 6.5 6.5 6.7 7.0 7.2 7.6 7.7 6.1 6.5 6.9 6.6 7.2 6.8 6.4 5.9 5.3 4.9 4.7 4.6 4.3 4.5 5.0 5.8 5.9 5.6 5.6 5.8 5.9 5.9 5.8 5.8 5.9 5.9 5.9 5.7 5.6 5.6 5.6 5.7 5.8
7.1 6.6 5.9 6.4 6.9 6.9 6.7 7.3 7.5 7.7 7.5 7.9 7.5 6.3 7.0 6.6 6.1 6.1 5.6 5.3 5.1 5.1 4.8 4.7 4.9 5.4 5.9 5.9 5.6 5.7 5.7 5.9 5.9 5.9 5.9 5.9 5.9 5.9 5.9 5.8 5.7 5.7 5.7 5.8
7.4 6.8 6.4 6.3 6.2 6.5 6.6 7.1 7.1 7.2 7.4 8.0 6.7 6.0 6.1 6.1 5.7 5.5 5.4 5.2 5.1 5.0 4.9 4.6 4.8 5.3 5.8 5.9 5.7 5.8 5.7 5.8 5.9 5.8 5.8 5.8 5.8 5.8 5.9 5.7 5.7 5.7 5.8 5.8
7.2 6.7 7.0 6.3 6.8 6.9 6.6 7.1 7.3 7.3 7.1 7.5 7.6 6.2 6.1 6.0 6.0 5.9 5.8 5.6 5.0 4.8 4.5 4.5 4.9 5.3 6.0 5.9 5.8 5.9 5.8 5.8 6.0 6.0 5.9 5.8 5.8 5.8 5.6 5.5 5.5 5.6 5.7 5.8
6.7 6.8 7.2 7.3 7.0 7.1 7.5 7.4 7.3 7.0 7.3 7.6 6.9 7.1 6.9 6.5 6.4 6.3 6.0 5.5 5.1 4.9 4.7 4.7 4.9 5.4 5.8 5.6 5.7 5.7 5.7 5.8 5.9 5.9 5.8 5.8 5.9 5.7 5.5 5.5 5.5 5.5 5.5 5.6
6.6 7.0 7.3 7.0 6.9 7.0 6.9 7.0 7.1 6.8 7.1 7.3 6.8 6.5 6.7 6.3 5.8 5.5 5.4 5.5 5.4 4.9 4.5 4.7 5.2 5.7 5.5 5.5 5.7 5.6 5.7 5.8 5.9 5.8 5.7 5.8 5.8 5.6 5.4 5.5 5.5 5.6 5.5 5.5
6.7 7.1 6.8 6.4 6.8 6.7 6.5 6.6 6.6 6.8 6.8 7.2 6.8 6.6 6.1 5.8 5.6 5.6 5.6 5.7 5.4 4.6 5.1 5.3 5.7 5.4 5.4 5.7 5.5 5.6 5.7 5.8 5.9 5.8 5.7 5.7 5.6 5.5 5.4 5.4 5.4 5.5 5.6 5.6
6.8 6.8 6.7 6.6 6.3 4.0 7.1 7.4 7.1 7.1 7.1 6.7 6.9 6.6 6.3 6.3 6.2 5.9 6.1 5.6 5.0 5.2 5.5 5.8 5.4 5.4 5.6 5.8 5.5 5.5 5.7 5.8 5.9 5.9 5.7 5.6 5.5 5.5 5.4 5.3 5.3 5.4 5.4 5.4
6.6 6.7 6.7 6.2 6.0 6.3 6.4 7.2 7.1 6.8 6.8 6.7 6.7 6.6 6.5 6.4 6.1 5.9 5.7 5.3 5.4 5.4 5.9 5.6 5.3 5.4 5.7 5.7 5.5 5.5 5.7 5.9 5.9 5.9 5.7 5.6 5.5 5.4 5.3 5.2 5.3 5.4 5.3 5.4
6.3 6.6 6.8 6.1 5.9 4.3 7.0 7.6 7.4 7.0 6.8 6.8 6.7 6.6 6.3 6.3 5.9 6.0 5.8 5.8 5.9 6.1 5.6 5.6 5.5 5.7 5.6 5.6 5.5 5.7 5.7 5.9 5.9 5.7 5.6 5.5 5.4 5.3 5.2 5.2 5.3 5.2 5.2 5.3
6.0 6.1 6.1 6.0 6.2 6.7 6.9 7.6 7.1 6.4 7.7 7.8 7.2 6.8 6.5 6.5 6.4 6.4 6.2 5.9 5.8 5.5 5.4 5.6 5.8 5.8 5.8 5.7 5.6 5.6 5.7 5.8 5.7 5.6 5.5 5.3 5.3 5.2 5.2 5.2 5.2 5.3 5.4 5.4
6.1 6.0 5.7 5.9 5.6 5.7 6.6 6.9 7.2 7.9 8.1 8.0 7.5 6.9 6.4 6.3 6.2 6.1 5.9 5.5 5.5 5.3 5.4 5.7 5.8 5.8 5.9 5.7 5.6 5.6 5.6 5.6 5.6 5.5 5.4 5.3 5.2 5.2 5.2 5.2 5.3 5.4 5.4 5.4
6.6 6.5 6.2 6.3 6.3 7.2 7.2 7.7 7.7 7.9 8.1 7.8 7.5 7.0 6.8 6.6 6.3 6.3 6.2 5.9 5.7 5.6 5.6 5.8 5.6 5.7 5.7 5.6 5.6 5.5 5.5 5.4 5.5 5.5 5.4 5.3 5.2 5.1 5.0 5.1 5.3 5.3 5.4 5.4
6.7 6.8 6.6 6.8 7.2 7.6 7.8 7.3 7.1 7.6 7.8 7.6 7.2 7.1 6.9 6.8 6.5 6.3 6.0 5.8 5.6 5.5 5.6 5.6 5.4 5.4 5.4 5.4 5.4 5.4 5.3 5.3 5.4 5.5 5.4 5.2 5.2 5.1 5.1 5.2 5.2 5.2 5.2 5.3
7.3 7.0 6.5 6.8 7.4 7.5 7.3 7.5 7.4 7.3 7.4 7.3 7.1 7.0 6.8 6.5 6.4 6.2 5.8 5.8 5.8 5.8 5.8 5.3 5.1 5.0 5.1 5.1 5.2 5.1 5.1 5.1 5.2 5.3 5.3 5.2 5.2 5.1 5.2 5.2 5.2 5.0 4.9 4.8
7.2 7.5 7.2 7.1 7.3 7.8 8.2 7.6 7.3 7.5 7.6 7.4 7.2 7.1 7.1 7.0 6.8 6.6 6.3 6.3 6.2 6.0 5.6 5.2 5.1 5.1 5.0 5.0 5.1 5.1 5.2 5.2 5.2 5.3 5.2 5.2 5.2 5.2 5.3 5.2 5.2 4.9 4.7 4.7
Wind_Speed
5 3 7 9 8 7 10 6 7 7 9 20 10 12 8 8 10 10 8 9 13 15 13 12 12 13 12 13 17 19 19 18 13 13 10 5 7 8 9 16 23 25 24 21
2 8 8 7 14 13 11 6 11 17 20 20 12 10 8 9 7 9 10 9 10 12 13 13 12 12 14 15 14 16 17 17 14 10 9 5 6 5 7 13 14 22 22 22
6 2 4 5 4 6 6 19 18 26 16 17 16 6 8 7 9 11 9 9 9 12 11 12 12 11 9 13 12 13 14 14 13 13 8 8 5 8 9 13 12 16 21 22
4 2 4 4 4 5 6 12 20 22 22 14 8 5 10 13 11 11 9 9 9 10 11 11 10 10 11 8 9 8 10 12 12 13 11 12 8 7 6 8 9 11 19 18
4 7 5 4 2 4 5 8 16 13 11 6 14 7 8 15 13 13 12 11 9 9 10 9 10 10 8 8 7 7 8 10 8 9 10 8 10 6 5 7 10 11 14 20
5 3 3 2 4 8 3 10 8 5 5 5 16 8 13 15 18 14 13 12 10 9 9 9 8 9 7 7 7 7 7 7 7 7 8 9 9 10 9 11 10 9 8 8
4 2 1 5 8 4 4 8 3 1 3 4 7 9 5 13 18 20 17 13 10 9 8 8 9 7 6 7 6 4 6 6 7 7 6 7 7 7 9 10 9 11 10 11
6 4 7 3 3 6 6 6 5 7 5 4 5 5 2 16 17 19 17 14 11 9 8 8 8 8 8 7 6 5 6 6 6 6 6 5 6 3 3 5 6 7 8 10
7 2 5 10 1 6 6 7 3 1 3 4 5 5 7 14 14 16 16 13 10 9 8 9 8 8 8 6 5 6 7 6 5 5 4 4 4 4 4 6 4 4 6 8
1 5 5 3 4 4 1 2 4 1 6 6 7 8 10 17 16 15 14 12 9 8 8 8 7 8 7 7 6 7 6 6 5 5 4 4 5 5 4 5 6 6 6 8
2 5 5 6 6 6 3 3 3 4 4 5 6 5 14 20 19 17 13 13 10 9 9 8 7 7 7 7 7 7 7 6 6 6 4 5 4 5 5 5 6 6 6 6
1 5 5 4 1 1 2 5 5 4 4 3 4 3 16 17 15 15 14 13 9 10 8 8 8 8 7 7 7 6 5 6 6 6 6 6 6 6 6 6 7 8 7 8
4 2 4 2 3 2 4 4 7 5 2 3 5 3 7 15 13 12 11 10 10 9 9 8 8 7 7 6 6 5 5 5 5 5 6 6 6 7 7 7 7 7 8 10
2 4 6 7 6 7 6 6 4 7 4 2 4 12 12 12 12 9 9 8 9 9 9 8 7 7 7 6 6 5 5 5 5 5 6 6 7 7 7 7 9 10 11 12
3 4 5 3 6 6 15 13 9 6 6 5 13 19 17 17 16 13 9 10 11 9 10 9 7 7 7 6 5 5 4 5 4 5 6 6 6 7 7 8 10 12 12 13
2 3 4 2 3 6 10 11 11 8 7 4 11 7 14 15 10 11 13 12 10 9 11 10 10 8 7 6 5 5 5 5 4 6 6 6 7 8 7 8 12 11 13 14
7 4 3 4 3 5 6 9 16 9 8 9 7 6 12 16 15 13 10 10 9 12 11 11 10 7 6 6 5 5 5 4 6 6 5 6 6 7 8 11 10 13 14 14
7 5 3 4 5 0 8 10 9 16 13 8 8 10 13 14 12 10 9 9 13 12 12 10 8 6 5 5 6 5 4 4 6 6 6 6 6 8 10 10 13 13 13 13
7 4 3 5 4 5 4 5 14 9 11 11 10 9 10 12 8 5 10 14 12 12 9 7 7 5 6 6 5 4 4 5 5 6 5 6 7 10 10 12 13 12 12 12
9 3 4 3 6 9 7 10 7 6 5 10 13 13 16 15 6 4 14 15 13 12 10 8 7 5 7 5 5 5 5 5 6 6 5 6 6 8 10 11 11 11 11 12
11 3 7 3 3 7 5 15 7 8 8 12 16 15 16 10 7 9 12 11 13 11 11 8 7 7 7 6 6 5 5 6 5 5 5 5 6 8 8 9 9 10 11 11
10 8 5 3 3 7 9 8 11 7 2 9 12 9 13 18 20 16 12 13 12 10 9 8 7 7 6 7 6 5 5 4 5 5 5 5 6 7 8 9 10 11 11 11
5 7 6 9 7 6 12 6 4 5 7 7 12 18 22 21 18 15 13 14 11 10 8 8 8 8 6 6 6 5 3 6 5 5 5 5 6 8 8 8 9 9 10 10
6 8 5 5 7 7 7 7 7 6 9 13 15 20 21 20 17 14 12 11 10 8 9 7 8 7 6 6 6 5 6 6 5 5 5 5 5 7 8 7 6 7 8 10
6 12 7 5 5 9 6 8 9 9 12 14 12 13 16 18 15 13 11 12 10 11 7 8 7 7 6 6 6 6 6 5 4 4 4 4 4 5 6 7 6 6 7 9
7 11 8 6 9 6 14 10 11 13 13 13 13 11 11 11 13 10 9 11 12 11 9 7 8 7 6 7 7 6 6 4 4 3 3 4 3 3 4 5 8 9 9 13
Wind_Direction
203 147 206 205 217 216 180 164 144 186 155 114 116 112 109 92 88 92 94 95 97 95 88 78 60 44 34 39 38 34 32 25 24 23 11 19 16 17 15 9 1 356 358 343
179 225 227 232 216 226 255 201 143 113 119 118 116 101 94 91 103 109 99 94 97 98 88 75 62 49 37 34 43 40 35 29 27 20 15 16 353 20 26 16 14 19 8 6
178 293 164 241 185 188 192 149 140 134 120 115 116 100 120 120 110 105 102 103 96 100 97 91 77 63 45 41 40 46 43 36 28 23 21 15 9 18 14 5 10 10 13 20
151 250 214 227 210 88 105 162 141 140 133 150 162 167 169 156 151 133 119 102 97 94 93 91 90 77 60 33 27 39 49 43 37 25 27 28 30 18 357 354 348 358 6 15
185 179 211 212 25 37 169 161 153 158 135 128 212 117 182 160 152 136 120 109 100 99 101 97 94 90 76 57 46 32 49 38 38 38 31 27 23 5 350 355 357 359 357 0
161 191 36 93 33 100 140 85 65 134 169 194 210 182 179 176 158 138 123 117 112 106 101 103 104 97 83 67 55 41 55 50 35 42 38 31 22 5 3 357 358 352 351 352
68 76 9 130 83 52 73 98 82 42 243 206 197 193 208 169 146 137 130 125 120 117 112 104 101 110 106 94 76 67 63 52 41 48 44 33 27 14 2 355 353 351 348 348
166 192 163 213 171 170 195 156 152 178 184 153 206 145 158 118 120 129 130 136 134 124 122 121 118 114 116 104 97 68 62 70 43 44 34 38 27 27 360 342 344 347 345 339
172 242 147 169 119 122 207 230 178 159 112 94 123 49 77 122 125 129 136 133 140 140 132 135 125 118 109 108 97 81 61 63 38 29 31 34 20 15 346 328 321 320 325 334
184 123 187 117 45 291 193 278 148 277 166 171 155 178 170 159 155 150 145 145 146 139 136 125 120 116 100 96 82 65 58 60 25 10 17 29 4 357 328 321 319 312 301 317
80 113 179 120 202 178 170 221 203 165 150 167 146 235 168 169 161 154 153 151 142 130 126 126 125 116 105 89 75 66 57 44 19 8 1 7 2 354 339 331 318 308 304 296
139 131 140 191 291 126 214 205 178 129 212 170 118 271 151 151 154 155 152 138 135 131 134 128 118 105 95 89 75 72 59 42 19 358 10 358 2 349 342 328 319 315 311 307
180 139 109 154 300 212 219 220 188 112 86 199 125 206 125 131 129 128 137 144 141 140 134 122 108 104 104 93 79 72 62 39 12 2 9 355 360 352 342 330 323 322 321 328
30 194 156 179 211 157 185 205 205 133 116 214 172 141 142 139 140 135 140 146 148 141 133 123 109 106 101 92 80 72 47 31 357 4 357 13 356 350 340 332 332 335 337 337
114 179 189 99 29 169 181 190 195 150 167 144 163 157 167 161 157 165 162 149 136 145 127 122 117 108 97 84 67 77 43 19 2 8 22 2 359 351 337 335 336 337 340 336
193 232 155 113 44 358 183 199 190 168 175 165 156 177 167 158 150 143 150 149 154 146 125 115 105 97 86 79 80 62 34 5 31 33 21 10 355 340 333 335 340 338 343 341
161 186 111 183 152 38 331 220 188 182 173 162 157 176 139 145 149 152 154 160 149 123 116 107 103 99 90 79 88 56 27 16 28 49 19 2 335 337 343 343 350 352 341 338
169 168 106 167 91 20 239 203 188 186 191 164 147 165 159 157 155 153 164 145 126 120 113 108 105 97 92 100 73 53 7 23 60 42 13 345 349 353 347 4 353 348 341 332
173 156 149 142 177 272 197 173 186 168 207 172 158 151 141 132 107 123 127 126 126 121 119 119 116 118 106 98 88 55 9 51 51 30 3 356 360 355 10 0 350 340 333 331
198 147 122 126 155 208 227 185 166 132 237 192 156 154 139 133 139 190 123 120 117 120 123 121 129 124 113 108 89 59 47 58 41 27 9 358 360 10 8 355 339 332 329 330
185 161 168 144 207 275 227 149 125 144 229 169 157 162 153 154 154 149 123 118 125 128 130 139 141 131 128 109 88 64 71 52 47 33 13 354 22 16 3 340 335 334 334 336
171 161 174 141 120 263 181 130 165 217 122 139 141 139 128 124 128 136 138 134 136 138 142 140 124 123 117 106 93 82 66 61 50 32 0 20 41 14 351 337 335 340 340 347
209 179 171 183 202 232 184 145 151 151 120 124 118 128 132 134 140 145 145 148 148 140 135 124 124 116 110 102 99 89 79 66 47 18 354 58 29 7 345 343 337 344 348 352
229 170 180 123 232 191 152 131 136 125 116 117 120 127 135 140 143 144 145 143 141 137 127 124 114 117 111 103 100 98 82 64 37 3 13 57 35 3 347 342 335 344 349 351
187 162 180 208 189 133 147 150 146 127 118 116 114 124 130 134 141 142 145 148 140 130 124 119 123 124 128 118 104 94 80 63 19 354 20 47 50 10 344 340 333 337 342 344
177 180 174 200 193 148 172 158 142 142 139 136 136 132 135 135 143 142 151 142 134 131 128 123 128 126 131 117 105 95 81 49 6 2 8 54 32 354 353 339 328 331 329 337